Starlink 31991

operational
NORAD ID: 59963 Int'l Des: 2024-107 Owner: SPXS Country: US Constellation: starlink
LEOCIRCULAR

About Starlink 31991

Description loading...

Live Position

Loading 3D Globe...

Upcoming Passes

Altitude History

Altitude vs Time

uPlot chart will show altitude changes over time

Two-Line Element Set

1 59963U 24107U 25308.26533921 -.00000265 00000-0 31669-5 0 9999
2 59963 53.1604 288.0988 0001219 92.6045 267.5096 15.30193788 80597
Epoch: Nov 4, 2025 • Age: 24 hours

Current Status

Altitude 476.1 km
Velocity 7.63 km/s
Sub-Earth Point 28.16°N, 62.44°W
Launch Date Jun 5, 2024
Age 1.4 years
Type internet

Technical Details

Classification Payload
Mass 730.00 kg
Dry Mass 700.00 kg
Total Mass 730.00 kg
Length 0.30 m
Diameter 4.10 m
Span 29.00 m
Shape Box + pan
Manufacturer SPXS
Bus Type Starlink V2M
Phase Status In Orbit
Owner/State SPXS/US

Large Constellations

Loading constellations...